WC1H Lynn MA US current weather conditions

sailwx.info

Wind from 112

Air temperature 18.9° C
Dewpoint 17.4° C

Last reported at 2020-Jul-15 01:05 UTC.
Time now 2020-Jul-15 01:39 UTC

Location: N 42°28' W 070°57'.
View on Google Maps.

See reports from other nearby stations

  
Tides and Currents Weather Stations Pressure Air Temp Water Temp Dewpoint Dewpoint Depression Visibility Wind Speed Wind Dir Waves Ship Positions
date/time (UTC)wind fromknots sea level pressurealtimeterstation pressurevisibilityair tempwater tempwave heightnotes
2020-Jul-15 01:05 112 18.9
2020-Jul-15 00:55 022 18.9
2020-Jul-15 00:45 056 0 gusting 4 18.9
2020-Jul-15 00:35 049 18.9
2020-Jul-15 00:25 053 18.9
2020-Jul-15 00:15 104 18.9
2020-Jul-15 00:05 091 0 gusting 6 18.9
2020-Jul-14 23:55 228 0 gusting 6 18.9
2020-Jul-14 23:45 036 0 gusting 4 19.4
2020-Jul-14 23:35 117 0 gusting 6 19.4
2020-Jul-14 23:25 052 0 gusting 6 19.4
2020-Jul-14 23:15 358 0 gusting 4 19.4
2020-Jul-14 23:05 079 0 gusting 4 19.4
2020-Jul-14 22:55 356 19.4
2020-Jul-14 22:45 359 19.4
2020-Jul-14 22:35 018 19.4
2020-Jul-14 22:25 044 20.0
2020-Jul-14 22:15 043 20.0
2020-Jul-14 22:05 086 20.0
2020-Jul-14 21:55 108 20.6
2020-Jul-14 21:45 145 20.0
2020-Jul-14 21:35 092 0 gusting 4 20.6
2020-Jul-14 21:25 049 0 gusting 6 21.1
2020-Jul-14 21:15 056 2 gusting 8 22.2
2020-Jul-14 21:05 335 1 gusting 7 23.3
2020-Jul-14 20:55 094 0 gusting 6 23.9
2020-Jul-14 20:45 099 0 gusting 6 24.4
2020-Jul-14 20:35 357 23.9
2020-Jul-14 20:25 046 0 gusting 5 23.9
2020-Jul-14 20:15 159 25.0
2020-Jul-14 20:05 110 25.6
2020-Jul-14 19:55 171 0 gusting 6 25.6
2020-Jul-14 19:45 037 26.1
2020-Jul-14 19:35 114 0 gusting 5 26.1
2020-Jul-14 19:25 136 26.1
2020-Jul-14 19:15 134 26.7
2020-Jul-14 19:05 293 26.7
2020-Jul-14 18:55 011 26.7
2020-Jul-14 18:45 030 0 gusting 4 26.7
2020-Jul-14 18:35 013 1 gusting 4 26.7
2020-Jul-14 18:25 358 0 gusting 5 27.2
2020-Jul-14 18:15 340 0 gusting 3 27.2
2020-Jul-14 18:05 171 27.8
2020-Jul-14 17:55 019 0 gusting 4 26.7
2020-Jul-14 17:45 333 0 gusting 6 26.7
2020-Jul-14 17:35 344 0 gusting 6 26.1
2020-Jul-14 17:25 016 0 gusting 5 26.1
2020-Jul-14 14:05
2020-Jul-14 11:05
2020-Jul-14 10:05
2020-Jul-14 09:05 324 20.0
2020-Jul-14 08:05 338 20.0
2020-Jul-14 07:55 20.0
2020-Jul-14 07:45 20.0
2020-Jul-14 07:35 20.0
2020-Jul-14 07:24 20.0
2020-Jul-14 07:14 20.0
2020-Jul-14 07:04 20.0
2020-Jul-14 06:54
2020-Jul-14 06:44
2020-Jul-14 06:34
2020-Jul-14 06:24
2020-Jul-14 06:14
2020-Jul-14 06:04
2020-Jul-14 05:54
2020-Jul-14 05:44
2020-Jul-14 05:34
2020-Jul-14 05:25
2020-Jul-14 05:14 317 20.6
2020-Jul-14 05:04 317 20.6
2020-Jul-14 04:54 317 20.6
2020-Jul-14 04:44 317 20.6
2020-Jul-14 04:34 317 20.6
2020-Jul-14 04:24 317 20.6
2020-Jul-14 04:14 317 21.1
2020-Jul-14 04:04 317 21.1
2020-Jul-14 03:54 344 21.1
2020-Jul-14 03:44 355 21.1
2020-Jul-14 03:34 007 21.7
2020-Jul-14 03:24 353 21.7
2020-Jul-14 03:14 355 21.7
2020-Jul-14 03:04 330 21.7
2020-Jul-14 02:54 020 22.2
2020-Jul-14 02:44 080 22.2
2020-Jul-14 02:34 080 22.2
2020-Jul-14 02:24 090 22.8
2020-Jul-14 02:14 344 22.2
2020-Jul-14 02:04 339 22.2
2020-Jul-14 01:54 339 22.2
2020-Jul-14 01:44 339 22.2
2020-Jul-14 01:34 114 22.2
2020-Jul-14 01:24 114 22.2
2020-Jul-14 01:14 174 22.2
2020-Jul-14 01:04 165 22.2
2020-Jul-14 00:54 285 22.2
2020-Jul-14 00:44 285 22.2
2020-Jul-14 00:34 285 22.2
2020-Jul-14 00:24 285 22.2
2020-Jul-14 00:14 323 22.2
2020-Jul-14 00:04 121 22.8
2020-Jul-13 23:54 136 23.3
2020-Jul-13 23:34 142 23.9
2020-Jul-13 23:24 336 24.4
2020-Jul-13 23:14 338 24.4
2020-Jul-13 23:04 332 24.4
2020-Jul-13 22:54 015 24.4
2020-Jul-13 22:44 025 24.4
2020-Jul-13 22:34 027 24.4
2020-Jul-13 22:24 006 0 gusting 3 24.4
2020-Jul-13 22:14 342 24.4
2020-Jul-13 22:04 339 24.4
2020-Jul-13 21:44 352 0 gusting 5 25.0
2020-Jul-13 21:34 075 0 gusting 3 25.0
2020-Jul-13 21:24 073 2 gusting 7 25.0
2020-Jul-13 21:14 351 1 gusting 7 25.6
2020-Jul-13 21:04 001 1 gusting 6 25.6
2020-Jul-13 20:54 321 2 gusting 9 25.6
2020-Jul-13 20:44 316 1 gusting 8 25.6
2020-Jul-13 20:34 354 26.1
2020-Jul-13 20:24 079 0 gusting 6 26.7
2020-Jul-13 20:14 076 27.2
2020-Jul-13 20:04 109 27.2
2020-Jul-13 19:54 034 0 gusting 5 26.7
2020-Jul-13 19:44 056 0 gusting 4 27.2
2020-Jul-13 19:34 129 1 gusting 6 27.2
2020-Jul-13 19:24 167 1 gusting 6 26.7
2020-Jul-13 19:14 210 26.7
2020-Jul-13 19:04 160 25.6
2020-Jul-13 18:54 127 25.0
2020-Jul-13 18:44 148 25.0
2020-Jul-13 18:34 141 0 gusting 6 25.6
2020-Jul-13 18:24 107 0 gusting 8 26.7
2020-Jul-13 18:14 145 0 gusting 3 26.7
2020-Jul-13 18:04 297 2 gusting 6 26.7
2020-Jul-13 17:54 096 1 gusting 10 26.7
2020-Jul-13 17:44 121 0 gusting 4 27.2
2020-Jul-13 17:34 141 0 gusting 4 28.3
2020-Jul-13 17:24 034 0 gusting 6 28.9
2020-Jul-13 17:14 115 0 gusting 6 28.3
2020-Jul-13 17:04 140 0 gusting 4 28.3
2020-Jul-13 16:54 114 28.3
2020-Jul-13 16:44 072 27.2
2020-Jul-13 16:34 199 0 gusting 3 27.2
2020-Jul-13 16:24 139 27.2
2020-Jul-13 16:14 117 0 gusting 5 27.2
2020-Jul-13 16:04 125 0 gusting 3 26.7
2020-Jul-13 15:54 205 0 gusting 4 27.2
2020-Jul-13 15:44 165 0 gusting 3 27.2
2020-Jul-13 15:34 148 26.7
2020-Jul-13 15:24 141 27.2
2020-Jul-13 15:14 116 27.2
2020-Jul-13 15:04 206 26.7
2020-Jul-13 14:54 116 27.2
2020-Jul-13 14:44 193 26.7
2020-Jul-13 14:34 117 26.1
2020-Jul-13 14:24 117 26.1
2020-Jul-13 14:14 195 26.1
2020-Jul-13 14:04 113 25.6
2020-Jul-13 13:54 228 25.6
2020-Jul-13 13:44 315 25.6
2020-Jul-13 13:34 197 25.6
2020-Jul-13 13:24 146 25.6
2020-Jul-13 13:14 145 25.0
2020-Jul-13 13:04 145 25.0
2020-Jul-13 12:54 144 24.4
2020-Jul-13 12:44 154 24.4
2020-Jul-13 12:34 163 24.4
2020-Jul-13 12:24 342 24.4
2020-Jul-13 12:14 342 24.4
2020-Jul-13 12:04 212 24.4
2020-Jul-13 11:54 128 23.9
2020-Jul-13 11:44 165 23.9
2020-Jul-13 11:34 165 23.3
2020-Jul-13 11:24 195 23.9
2020-Jul-13 11:14 165 23.3
2020-Jul-13 11:04 165 23.3
2020-Jul-13 10:54 168 23.3
2020-Jul-13 10:45 168 23.3
2020-Jul-13 10:35 131 23.3
2020-Jul-13 10:25 131 23.3
2020-Jul-13 10:15 131 23.3
2020-Jul-13 10:05 124 23.3
2020-Jul-13 09:55 349 23.3
2020-Jul-13 09:45 351 23.3
2020-Jul-13 09:35 351 23.3
2020-Jul-13 09:25 352 23.3
2020-Jul-13 09:15 066 23.3
2020-Jul-13 09:05 127 23.3
2020-Jul-13 08:55 127 23.3
2020-Jul-13 08:45 290 23.3
2020-Jul-13 08:35 130 23.9
2020-Jul-13 08:25 115 23.9
2020-Jul-13 08:15 238 23.9
2020-Jul-13 08:05 138 23.9
2020-Jul-13 07:55 336 23.9
2020-Jul-13 07:45 322 23.9
2020-Jul-13 07:35 139 24.4
2020-Jul-13 07:25 331 24.4
2020-Jul-13 07:15 139 24.4
2020-Jul-13 07:05 153 24.4
2020-Jul-13 06:55 148 24.4
2020-Jul-13 06:45 200 25.0
2020-Jul-13 06:35 128 25.0
2020-Jul-13 06:25 141 25.0
2020-Jul-13 06:15 251 25.0
2020-Jul-13 06:05 157 25.0
2020-Jul-13 05:55 206 25.0
2020-Jul-13 05:45 156 0 gusting 5 25.0
2020-Jul-13 05:34 131 0 gusting 2 25.0
2020-Jul-13 05:24 205 25.0
2020-Jul-13 05:15 176 25.0
2020-Jul-13 05:05 140 25.6
2020-Jul-13 04:55 171 25.6
2020-Jul-13 04:45 173 25.6
2020-Jul-13 04:35 233 25.6
2020-Jul-13 04:24 112 25.6
2020-Jul-13 04:14 119 25.6
2020-Jul-13 04:04 242 26.1
2020-Jul-13 03:54 165 26.1
2020-Jul-13 03:44 255 0 gusting 7 26.1
2020-Jul-13 03:34 110 0 gusting 5 26.7
2020-Jul-13 03:24 113 0 gusting 4 26.7
2020-Jul-13 03:14 068 26.7
2020-Jul-13 03:04 088 0 gusting 6 26.7
2020-Jul-13 02:54 146 26.7
2020-Jul-13 02:44 063 0 gusting 3 27.2
2020-Jul-13 02:34 188 27.2
2020-Jul-13 02:24 143 27.2
2020-Jul-13 02:14 078 27.2
2020-Jul-13 02:04 164 27.8
2020-Jul-13 01:54 186 27.8
2020-Jul-13 01:44 171 27.8
2020-Jul-13 01:34 194 27.8
2020-Jul-13 01:24 352 28.3
2020-Jul-13 01:14 161 28.3
2020-Jul-13 01:04 223 28.3